| time (UTC) | temp F | wind direction | speed knots | gust knots | rain 1hr in | rain 24hr in | rain mn in | humidity % | barometer mb |
| 20260906211506 | 94 | 145 | 0.9 | 0.0 | 0.00 | 0.00 | 0.00 | 47 | 1009.0 |
| 20260906210005 | 95 | 68 | 0.9 | 0.0 | 0.00 | 0.00 | 0.00 | 46 | 1009.2 |
| 20260906204511 | 96 | 309 | 0.9 | 0.0 | 0.00 | 0.00 | 0.00 | 45 | 1009.4 |
| 20260906203004 | 97 | 40 | 1.7 | 0.0 | 0.00 | 0.00 | 0.00 | 44 | 1009.4 |
| 20260906201504 | 97 | 112 | 0.9 | 0.0 | 0.00 | 0.00 | 0.00 | 44 | 1009.6 |
| 20260906200004 | 98 | 77 | 1.7 | 0.0 | 0.00 | 0.00 | 0.00 | 43 | 1009.8 |
| 20260906194502 | 96 | 60 | 1.7 | 0.0 | 0.00 | 0.00 | 0.00 | 46 | 1010.0 |
| 20260906193001 | 96 | 64 | 1.7 | 0.0 | 0.00 | 0.00 | 0.00 | 46 | 1010.3 |
| 20260906191600 | 97 | 235 | 1.7 | 0.0 | 0.00 | 0.00 | 0.00 | 42 | 1010.4 |
| 20260906190057 | 96 | 205 | 0.9 | 0.0 | 0.00 | 0.00 | 0.00 | 49 | 1010.6 |
| 20260906184554 | 94 | 220 | 0.9 | 0.0 | 0.00 | 0.00 | 0.00 | 53 | 1010.7 |
| 20260906183050 | 92 | 179 | 0.9 | 0.0 | 0.00 | 0.00 | 0.00 | 57 | 1010.8 |
| 20260906181550 | 89 | 343 | 0.9 | 0.0 | 0.00 | 0.00 | 0.00 | 64 | 1011.0 |
| 20260906180057 | 88 | 10 | 0.9 | 0.0 | 0.00 | 0.00 | 0.00 | 67 | 1011.3 |
| 20260906174540 | 87 | 317 | 1.7 | 0.0 | 0.00 | 0.00 | 0.00 | 68 | 1011.7 |
| 20260906173038 | 87 | 257 | 0.9 | 0.0 | 0.00 | 0.00 | 0.00 | 70 | 1011.9 |
| 20260906171536 | 86 | 194 | 0.9 | 0.0 | 0.00 | 0.00 | 0.00 | 71 | 1012.2 |
| 20260906170037 | 86 | 104 | 0.9 | 0.0 | 0.00 | 0.00 | 0.00 | 72 | 1012.5 |
| 20260906164536 | 86 | 156 | 0.9 | 0.0 | 0.00 | 0.00 | 0.00 | 72 | 1012.4 |
| 20260906163035 | 87 | 45 | 0.9 | 0.0 | 0.00 | 0.00 | 0.00 | 70 | 1012.5 |
| 20260906161540 | 86 | 28 | 0.9 | 0.0 | 0.00 | 0.00 | 0.00 | 71 | 1012.5 |
| 20260906160029 | 84 | 131 | 0.0 | 0.0 | 0.00 | 0.00 | 0.00 | 72 | 1012.5 |
| 20260906154539 | 84 | 107 | 0.9 | 0.0 | 0.00 | 0.00 | 0.00 | 74 | 1012.3 |
| 20260906153025 | 83 | 165 | 0.9 | 0.0 | 0.00 | 0.00 | 0.00 | 75 | 1012.0 |
| 20260906151524 | 83 | 114 | 0.9 | 0.0 | 0.00 | 0.00 | 0.00 | 75 | 1011.9 |
| 20260906150024 | 83 | 106 | 0.0 | 0.0 | 0.00 | 0.00 | 0.00 | 75 | 1011.9 |
| 20260906144523 | 82 | 215 | 0.9 | 0.0 | 0.00 | 0.00 | 0.00 | 76 | 1011.7 |
| 20260906143021 | 82 | 147 | 0.9 | 0.0 | 0.00 | 0.00 | 0.00 | 77 | 1011.9 |
| 20260906141520 | 81 | 130 | 0.9 | 0.0 | 0.00 | 0.00 | 0.00 | 77 | 1011.7 |
| 20260906140031 | 81 | 156 | 0.0 | 0.0 | 0.00 | 0.00 | 0.00 | 78 | 1011.5 |
| 20260906134518 | 81 | 129 | 0.0 | 0.0 | 0.00 | 0.00 | 0.00 | 78 | 1011.4 |
| 20260906133023 | 80 | 129 | 0.0 | 0.0 | 0.00 | 0.00 | 0.00 | 79 | 1011.4 |
| 20260906131515 | 80 | 129 | 0.0 | 0.0 | 0.00 | 0.00 | 0.00 | 80 | 1011.1 |
| 20260906130021 | 79 | 171 | 0.0 | 0.0 | 0.00 | 0.00 | 0.00 | 81 | 1011.0 |
| 20260906124512 | 78 | 171 | 0.0 | 0.0 | 0.00 | 0.00 | 0.00 | 83 | 1010.8 |
| 20260906123018 | 78 | 171 | 0.0 | 0.0 | 0.00 | 0.00 | 0.00 | 82 | 1010.5 |
| 20260906121510 | 78 | 171 | 0.0 | 0.0 | 0.00 | 0.00 | 0.00 | 81 | 1010.2 |
| 20260906120009 | 78 | 171 | 0.0 | 0.0 | 0.00 | 0.00 | 0.00 | 81 | 1010.1 |
| 20260906114510 | 78 | 171 | 0.0 | 0.0 | 0.00 | 0.00 | 0.00 | 81 | 1009.8 |
| 20260906113011 | 78 | 171 | 0.0 | 0.0 | 0.00 | 0.00 | 0.00 | 80 | 1009.5 |
| 20260906111505 | 79 | 171 | 0.0 | 0.0 | 0.00 | 0.00 | 0.00 | 80 | 1009.4 |
| 20260906110004 | 79 | 171 | 0.0 | 0.0 | 0.00 | 0.00 | 0.00 | 80 | 1009.4 |
| 20260906104502 | 79 | 171 | 0.0 | 0.0 | 0.00 | 0.00 | 0.00 | 79 | 1009.4 |
| 20260906103102 | 80 | 171 | 0.0 | 0.0 | 0.00 | 0.00 | 0.00 | 79 | 1009.3 |
| 20260906101559 | 80 | 171 | 0.0 | 0.0 | 0.00 | 0.00 | 0.00 | 78 | 1009.1 |
| 20260906094602 | 80 | 197 | 0.0 | 0.0 | 0.00 | 0.00 | 0.00 | 78 | 1009.3 |
| 20260906093056 | 80 | 257 | 0.0 | 0.0 | 0.00 | 0.00 | 0.00 | 77 | 1009.2 |
| 20260906091554 | 81 | 217 | 0.9 | 0.0 | 0.00 | 0.00 | 0.00 | 76 | 1009.1 |
| 20260906090056 | 81 | 280 | 0.0 | 0.0 | 0.00 | 0.00 | 0.00 | 76 | 1009.2 |
| 20260906084556 | 81 | 182 | 0.9 | 0.0 | 0.00 | 0.00 | 0.00 | 75 | 1009.2 |
| 20260906083050 | 82 | 130 | 0.0 | 0.0 | 0.00 | 0.00 | 0.00 | 75 | 1009.2 |
| 20260906081547 | 82 | 193 | 0.9 | 0.0 | 0.00 | 0.00 | 0.00 | 74 | 1009.2 |
| 20260906080053 | 82 | 180 | 0.9 | 0.0 | 0.00 | 0.00 | 0.00 | 74 | 1009.4 |
| 20260906074549 | 82 | 184 | 0.9 | 0.0 | 0.00 | 0.00 | 0.00 | 74 | 1009.6 |
| 20260906073042 | 83 | 189 | 0.0 | 0.0 | 0.00 | 0.00 | 0.00 | 74 | 1009.7 |
| 20260906071540 | 83 | 114 | 0.9 | 0.0 | 0.00 | 0.00 | 0.00 | 73 | 1010.0 |
| 20260906070039 | 83 | 142 | 0.9 | 0.0 | 0.00 | 0.00 | 0.00 | 73 | 1010.1 |
| 20260906064537 | 83 | 230 | 0.9 | 0.0 | 0.00 | 0.00 | 0.00 | 73 | 1010.1 |
| 20260906063044 | 83 | 143 | 0.9 | 0.0 | 0.00 | 0.00 | 0.00 | 72 | 1010.3 |
| 20260906061534 | 84 | 222 | 0.9 | 0.0 | 0.00 | 0.00 | 0.00 | 72 | 1010.3 |
| 20260906060035 | 84 | 51 | 0.9 | 0.0 | 0.00 | 0.00 | 0.00 | 71 | 1010.5 |
| 20260906054550 | 84 | 162 | 0.9 | 0.0 | 0.00 | 0.00 | 0.00 | 71 | 1010.4 |
| 20260906053031 | 84 | 188 | 0.0 | 0.0 | 0.00 | 0.00 | 0.00 | 71 | 1010.3 |
| 20260906051535 | 84 | 170 | 1.7 | 0.0 | 0.00 | 0.00 | 0.00 | 71 | 1010.3 |
| 20260906050033 | 84 | 118 | 0.9 | 0.0 | 0.00 | 0.00 | 0.00 | 71 | 1010.5 |
| 20260906044529 | 84 | 170 | 0.0 | 0.0 | 0.00 | 0.00 | 0.00 | 70 | 1010.5 |
| 20260906043027 | 84 | 133 | 0.9 | 0.0 | 0.00 | 0.00 | 0.00 | 69 | 1010.5 |
| 20260906041526 | 84 | 162 | 0.9 | 0.0 | 0.00 | 0.00 | 0.00 | 68 | 1010.3 |
| 20260906040033 | 85 | 158 | 0.9 | 0.0 | 0.00 | 0.00 | 0.00 | 67 | 1010.2 |
| 20260906034525 | 85 | 140 | 0.9 | 0.0 | 0.00 | 0.00 | 0.00 | 66 | 1010.4 |
| 20260906033024 | 86 | 149 | 0.9 | 0.0 | 0.00 | 0.00 | 0.00 | 65 | 1010.2 |
| 20260906031555 | 86 | 131 | 1.7 | 0.0 | 0.00 | 0.00 | 0.00 | 63 | 1010.0 |
| 20260906030024 | 87 | 133 | 1.7 | 0.0 | 0.00 | 0.00 | 0.00 | 62 | 1009.9 |
| 20260906024548 | 88 | 98 | 1.7 | 0.0 | 0.00 | 0.00 | 0.00 | 61 | 1009.5 |
| 20260906023024 | 88 | 114 | 0.9 | 0.0 | 0.00 | 0.00 | 0.00 | 59 | 1009.2 |
| 20260906021523 | 89 | 124 | 1.7 | 0.0 | 0.00 | 0.00 | 0.00 | 58 | 1008.7 |
| 20260906020024 | 89 | 77 | 1.7 | 0.0 | 0.00 | 0.00 | 0.00 | 57 | 1008.4 |
| 20260906014522 | 90 | 121 | 1.7 | 0.0 | 0.00 | 0.00 | 0.00 | 57 | 1008.3 |
| 20260906013021 | 91 | 156 | 2.6 | 0.0 | 0.00 | 0.00 | 0.00 | 56 | 1008.1 |
| 20260906011520 | 92 | 321 | 2.6 | 0.0 | 0.00 | 0.00 | 0.00 | 54 | 1008.1 |
| 20260906010039 | 93 | 118 | 1.7 | 0.0 | 0.00 | 0.00 | 0.00 | 51 | 1007.9 |
| 20260906004520 | 93 | 171 | 1.7 | 0.0 | 0.00 | 0.00 | 0.00 | 49 | 1007.9 |
| 20260906003019 | 94 | 68 | 0.9 | 0.0 | 0.00 | 0.00 | 0.00 | 48 | 1007.9 |
| 20260906001522 | 96 | 70 | 0.9 | 0.0 | 0.00 | 0.00 | 0.00 | 46 | 1007.8 |
| 20260906000022 | 96 | 145 | 0.9 | 0.0 | 0.00 | 0.00 | 0.00 | 43 | 1007.8 |
| 20260905234518 | 97 | 110 | 0.0 | 0.0 | 0.00 | 0.00 | 0.00 | 42 | 1007.7 |
| 20260905233017 | 98 | 156 | 0.9 | 0.0 | 0.00 | 0.00 | 0.00 | 41 | 1007.6 |
| 20260905231517 | 98 | 351 | 0.9 | 0.0 | 0.00 | 0.00 | 0.00 | 40 | 1007.6 |
| 20260905230030 | 99 | 54 | 0.9 | 0.0 | 0.00 | 0.00 | 0.00 | 39 | 1007.6 |
| 20260905224519 | 99 | 111 | 0.9 | 0.0 | 0.00 | 0.00 | 0.00 | 39 | 1007.6 |
| 20260905223017 | 99 | 167 | 0.9 | 0.0 | 0.00 | 0.00 | 0.00 | 39 | 1007.6 |
| 20260905221513 | 99 | 104 | 0.9 | 0.0 | 0.00 | 0.00 | 0.00 | 39 | 1007.8 |
| 20260905220016 | 97 | 122 | 0.9 | 0.0 | 0.00 | 0.00 | 0.00 | 41 | 1008.0 |
| 20260905214512 | 98 | 108 | 0.9 | 0.0 | 0.00 | 0.00 | 0.00 | 40 | 1007.9 |
| 20260905213011 | 97 | 56 | 0.9 | 0.0 | 0.00 | 0.00 | 0.00 | 41 | 1007.9 |